Location: Pedholt
(56.0260°N, 10.2097°E)
Time: 05:46:45
(UTC+00:00)

Vanguard 3 - Pass Details

Date: 07 August 2021
Orbit: 510 x 3260 km, 33.3° (Epoch: 19 September)

Event Time Altitude Azimuth Distance (km) Brightness Sun altitude
Rises 19:23:32 0° 257° (WSW) 5,873 12.3 -2.0°
Reaches altitude 10° 19:27:51 10° 246° (WSW) 5,233 11.7 -2.5°
Maximum altitude 19:40:19 28° 197° (SSW) 4,639 10.8 -3.9°
Drops below altitude 10° 19:55:00 10° 149° (SSE) 6,178 11.0 -5.5°
Enters shadow 19:58:08 - 144° (SE) 6,661 11.1 -5.8°
